Weather History for Miles City, MT

Change the Weather History Date:

Thursday, October 4, 2012

  Actual Average Record
Temperature  
Mean Temperature 38 °F 52 °F  
Max Temperature 43 °F 65 °F 93 °F (1963)
Min Temperature 32 °F 38 °F 27 °F (1952)
Degree Days  
Heating Degree Days 27 14  
Month to date heating degree days 58 52  
Since 1 July heating degree days 151 288  
Cooling Degree Days 0 0  
Month to date cooling degree days 0 0  
Year to date cooling degree days 1107 728  
Moisture  
Dew Point 34 °F    
Average Humidity 77    
Maximum Humidity 92    
Minimum Humidity 62    
Precipitation  
Precipitation 0.04 in 0.03 in 0.96 in (2005)
Month to date precipitation 0.32 0.15  
Year to date precipitation 4.95 10.99  
Sea Level Pressure  
Sea Level Pressure 30.43 in    
Wind  
Wind Speed 4 mph (NW)    
Max Wind Speed 13 mph    
Max Gust Speed 16 mph    
Visibility 10 miles    
Events Rain , Snow    
T = Trace of Precipitation, MM = Missing Value Source: NWS Daily Summary

Daily Weather History Graph

Daily Weather History Graph

Search for Another Location

Airport:

Trip Planner

Search our weather history database for the weather conditions in past years. The results will help you decide how hot, cold, wet, or windy it might be!

Date:

Astronomy

Oct. 04, 2012 Rise Set
Actual Time 7:06 AM MDT 6:36 PM MDT
Civil Twilight 6:36 AM MDT 7:06 PM MDT
Nautical Twilight 6:01 AM MDT 7:41 PM MDT
Astronomical Twilight 5:26 AM MDT 8:16 PM MDT
Moon 8:58 PM MDT (10/4) 11:42 AM MDT (10/4)
Length of Visible Light 12h 29m
Length of Day
11h 29m
Waning Gibbous, 81% of the Moon is Illuminated
Oct 4
Waning Gibbous
Oct 8
Last Quarter
Oct 15
New
Oct 21
First Quarter
Oct 29
Full

Hourly Weather History & Observations

Time (MDT) Temp. Windchill Dew Point Humidity Pressure Visibility Wind Dir Wind Speed Gust Speed Precip Events Conditions
12:01 AM 39.2 °F 32.0 °F 33.8 °F 81% 30.42 in 10.0 mi North 11.5 mph - N/A   Overcast
12:53 AM 37.9 °F 30.9 °F 33.1 °F 83% 30.48 in 10.0 mi NNW 10.4 mph - N/A   Overcast
1:53 AM 37.9 °F 34.4 °F 33.1 °F 83% 30.48 in 10.0 mi NNW 4.6 mph - N/A   Overcast
2:53 AM 37.9 °F 34.4 °F 33.1 °F 83% 30.47 in 10.0 mi NW 4.6 mph - N/A   Overcast
3:53 AM 37.0 °F 33.3 °F 35.1 °F 93% 30.46 in 10.0 mi NW 4.6 mph - 0.00 in   Overcast
4:53 AM 37.0 °F 32.4 °F 34.0 °F 89% 30.47 in 10.0 mi NW 5.8 mph - N/A   Overcast
5:53 AM 37.0 °F 34.5 °F 35.1 °F 93% 30.47 in 10.0 mi WNW 3.5 mph - N/A   Overcast
6:16 AM 37.4 °F - 35.6 °F 93% 30.41 in 10.0 mi Calm Calm - N/A   Overcast
6:53 AM 37.0 °F - 34.0 °F 89% 30.47 in 10.0 mi Calm Calm - N/A   Overcast
7:53 AM 37.0 °F 34.5 °F 35.1 °F 93% 30.47 in 10.0 mi WNW 3.5 mph - N/A   Mostly Cloudy
8:07 AM 37.4 °F - 35.6 °F 93% 30.41 in 10.0 mi Calm Calm - N/A   Overcast
8:33 AM 37.4 °F - 33.8 °F 87% 30.41 in 10.0 mi Calm Calm - N/A   Overcast
8:53 AM 39.9 °F - 34.0 °F 79% 30.47 in 10.0 mi Calm Calm - N/A   Overcast
9:38 AM 39.2 °F 34.2 °F 33.8 °F 81% 30.41 in 10.0 mi NW 6.9 mph - 0.00 in Rain Light Rain
9:53 AM 39.0 °F 34.8 °F 34.0 °F 82% 30.47 in 10.0 mi NNW 5.8 mph - 0.00 in Rain Light Rain
10:21 AM 39.2 °F 35.0 °F 35.6 °F 87% 30.41 in 10.0 mi WNW 5.8 mph - 0.00 in   Overcast
10:53 AM 41.0 °F 38.0 °F 34.0 °F 76% 30.46 in 10.0 mi NW 4.6 mph - 0.00 in   Overcast
11:53 AM 42.1 °F - 30.9 °F 65% 30.45 in 10.0 mi Calm Calm - N/A   Overcast
12:53 PM 39.9 °F 33.9 °F 33.1 °F 77% 30.45 in 10.0 mi NNE 9.2 mph - 0.00 in Rain Light Rain
1:07 PM 37.4 °F 33.8 °F 33.8 °F 87% 30.39 in 2.5 mi West 4.6 mph - 0.02 in Snow Light Snow
1:14 PM 37.4 °F 32.1 °F 33.8 °F 87% 30.39 in 9.0 mi SW 6.9 mph - 0.02 in Rain Light Rain
1:36 PM 39.2 °F 35.9 °F 35.6 °F 87% 30.38 in 10.0 mi SW 4.6 mph - 0.02 in   Overcast
1:53 PM 41.0 °F 37.1 °F 33.1 °F 73% 30.43 in 10.0 mi WNW 5.8 mph - 0.02 in   Overcast
2:53 PM 41.0 °F - 33.1 °F 73% 30.42 in 5.0 mi Calm Calm - 0.01 in Rain Light Rain
3:25 PM 39.2 °F 33.6 °F 35.6 °F 87% 30.36 in 10.0 mi SW 8.1 mph - 0.01 in Rain Light Rain
3:53 PM 39.0 °F 32.8 °F 35.1 °F 86% 30.42 in 10.0 mi SW 9.2 mph - 0.01 in   Overcast
4:53 PM 39.9 °F 35.8 °F 35.1 °F 83% 30.42 in 10.0 mi SW 5.8 mph - 0.00 in   Overcast
5:53 PM 41.0 °F - 33.1 °F 73% 30.42 in 10.0 mi Calm Calm - N/A   Mostly Cloudy
6:53 PM 39.0 °F 36.8 °F 35.1 °F 86% 30.43 in 10.0 mi West 3.5 mph - N/A   Mostly Cloudy
7:53 PM 39.9 °F - 36.0 °F 86% 30.43 in 10.0 mi Calm Calm - N/A   Overcast
8:53 PM 39.0 °F 35.7 °F 35.1 °F 86% 30.43 in 10.0 mi NNE 4.6 mph - N/A   Overcast
9:53 PM 37.9 °F 34.4 °F 35.1 °F 89% 30.43 in 10.0 mi ENE 4.6 mph - N/A   Overcast
10:53 PM 37.0 °F 32.4 °F 32.0 °F 82% 30.44 in 10.0 mi NNE 5.8 mph - N/A   Clear
11:53 PM 36.0 °F 33.3 °F 33.1 °F 89% 30.43 in 10.0 mi South 3.5 mph - N/A   Overcast